Regional Weather Roundup
Issued by NWS

Home | Current Version | Previous Version | Graphics & Text | Print | Product List | Glossary On
Versions: 1 2 3 4 5 6 7 8 9 10 11 12 13 14 15 16 17 18 19 20 21 22 23 24 25 26 27
000
ASUS45 KBOU 280907
RWRCO

WEATHER ROUNDUP FOR COLORADO
NATIONAL WEATHER SERVICE DENVER/BOULDER CO
300 AM MDT WED JUN 28 2017

NOTE: "FAIR" INDICATES FEW OR NO CLOUDS BELOW 12000 FEET WITH NO
SIGNIFICANT WEATHER AND/OR OBSTRUCTIONS TO VISIBILITY.

COZ001>005-013-030-031-281000-
...NORTHWEST COLORADO...

CITY           SKY/WX    TMP DP  RH WIND       PRES   REMARKS
CRAIG          FAIR      49  38  65 CALM      30.02S
HAYDEN         FAIR      54  32  43 CALM      30.03S
MEEKER         FAIR      50  35  56 NE8       30.02F
RABBIT EARS PA FAIR      46  32  57 W9        30.28F
STEAMBOAT SPGS FAIR      45  38  76 CALM      30.05F
WALDEN         FAIR      39  32  75 SE6       30.14S
$$

COZ006>008-011-281000-
...WEST CENTRAL VALLEYS...

CITY           SKY/WX    TMP DP  RH WIND       PRES   REMARKS
GRAND JUNCTION FAIR      75  26  16 W7        29.84F
MONTROSE       FAIR      62  22  21 SE9       29.96S
EAGLE          FAIR      55  33  43 E3        30.06F
RIFLE          FAIR      64  30  27 E15       29.93F
DELTA          FAIR      66  26  21 E7        29.91R
NUCLA          FAIR      61  14  16 E12       29.98F
$$

COZ017>023-064>068-281000-
...SOUTHWEST COLORADO...

CITY           SKY/WX    TMP DP  RH WIND       PRES   REMARKS
DURANGO        FAIR      44  25  47 NE8       30.05S
CORTEZ         FAIR      49  27  42 E5        29.99S
PAGOSA SPRINGS FAIR      46  19  34 NE3       30.14R
TELLURIDE      FAIR      52  15  23 SE7       30.23F
WOLF CREEK PAS FAIR      50   7  17 SW12G18   30.47F
$$

COZ009-010-012-014-032>034-037-058>063-281000-
...CENTRAL COLORADO...

CITY           SKY/WX    TMP DP  RH WIND       PRES   REMARKS
ASPEN          FAIR      49  30  48 S6        30.12S
BUENA VISTA    FAIR      53  24  32 N5        30.12S
COPPER MTN     FAIR      50  25  37 NW12      30.42S
BERTHOUD PASS  FAIR      41  28  60 NW21      30.44R
COTTONWOOD PAS FAIR      63   1   8 SW10      30.25F
GUNNISON       FAIR      45  27  49 SE3       30.13S
KREMMLING      FAIR      55  37  50 CALM      30.11F
LEADVILLE      FAIR      40  25  55 NE6       30.26S
MONARCH PASS   FAIR      48  10  21 SW14      30.51F
SALIDA         FAIR      59  22  23 W7        30.16S
SUNLIGHT       FAIR      52  19  28 NW5       30.34F
WILKERSON PASS FAIR      52  19  28 N5        30.38F
$$

COZ069>075-281000-
...SAN LUIS VALLEY/SANGRE DE CRISTO MOUNTAINS...

CITY           SKY/WX    TMP DP  RH WIND       PRES   REMARKS
ALAMOSA        FAIR      48  31  51 S9        30.09S
DEL NORTE      NOT AVBL
LA VETA PASS   FAIR      54  21  28 SE5       30.40R
SAGUACHE       FAIR      54  18  24 NW14      30.12S
$$

COZ035-036-038>040-281000-
...NORTHERN COLORADO FRONT RANGE...

CITY           SKY/WX    TMP DP  RH WIND       PRES   REMARKS
DENVER INTL AP FAIR      59  39  47 SE7       29.96F
DMNS CITY PARK   N/A     62  41  45 E9        29.97S
AURORA         PTCLDY    55  40  56 S7        29.99R
FRONT RANGE AP FAIR      59  39  47 SE3       29.97F
ERIE MUNI ARPT FAIR      55  44  65 CALM      29.96R
BOULDER MUN AP FAIR      61  43  51 CALM      29.97R
CENTENNIAL     FAIR      60  39  45 E3        30.00R
BROOMFIELD     FAIR      63  39  42 SE5       29.99S
FORT COLLINS   FAIR      62  45  53 SW5       29.95S
LONGMONT       FAIR      56  44  64 CALM      29.97R
$$

COZ041-046-047-076>085-087-088-281000-
...PIKES PEAK/PALMER DIVIDE AND SOUTHERN FOOTHILLS...

CITY           SKY/WX    TMP DP  RH WIND       PRES   REMARKS
COLO. SPRINGS  FAIR      67  35  30 N12G18    30.01R
A. F. ACADEMY  FAIR      54  35  48 N10       30.02R
SCHRIEVER AFB  FAIR      60  37  42 N20G25    29.99R
CHEYENNE MTN   FAIR      68  29  23 NW17      29.99R
ELLICOTT       FAIR     N/A N/A N/A N13G22    29.96R
FALCON           N/A     58  35  42 N10       30.05R
FORT CARSON    FAIR      63  35  34 N12       29.96R
LIMON          FAIR      56  43  61 N9        29.94R
MONUMENT HILL  FAIR      52  36  54 E5        30.08S
CANON CITY     CLEAR     72  37  28 CALM      29.93R
WALSENBURG     FAIR      64  37  36 CALM      30.00R
TRINIDAD       FAIR      69  34  27 NW16      29.94R
$$

COZ042>045-048>051-090-091-281000-
...NORTHEAST COLORADO...

CITY           SKY/WX    TMP DP  RH WIND       PRES   REMARKS
GREELEY ARPT   FAIR      58  44  60 SW5       29.94R
AKRON          FAIR      54  46  74 N7        29.90S
BURLINGTON     FAIR      62  57  83 N8        29.83R
WRAY           FAIR      57  54  88 CALM      29.82S
YUMA           FAIR      59  50  72 NW8       29.86F
STERLING       FAIR      54  50  87 CALM      29.86S
HOLYOKE        NOT AVBL
FORT MORGAN    FAIR      57  43  59 N9        29.91S
$$

COZ086-089-092>099-281000-
...SOUTHEAST COLORADO...

CITY           SKY/WX    TMP DP  RH WIND       PRES   REMARKS
PUEBLO         FAIR      69  38  32 NW3       29.88R
LA JUNTA       FAIR      69  46  43 N16       29.79R
LAMAR          FAIR      68  48  48 SW7       29.71S
SPRINGFIELD      N/A     69  51  52 SW14G23   29.78F
$$




USA.gov is the U.S. government's official web portal to all federal, state and local government web resources and services.